FENGYUN 1C DEB

Satellite information

Favourite Embed

Satellite Type and Status

DEBRISIN ORBIT

Key statistics

Satellite FENGYUN 1C DEB at a glance.

Uptime

9555

Days in orbit

Revolutions

≈ 14.1

Per day

Orbit

SSO

Sun Synchronous Orbit

Inclination

98.6

Latest

Satellite identification and parameters

Extended collection of information and parameters for FENGYUN 1C DEB.

Object identification

Identified? True

Debris? True

Object name: FENGYUN 1C DEB

International designator: 1999-025DHP

Object number (NORAD): 33726

Object ID (CCSDS): 33726

Country: PEOPLES REPUBLIC OF CHINA (PRC)

Current information (Y/N): Y

RCS size: SMALL

Orbital parameters

Period: 101.846 minutes

Inclination: 98.6206 deg

SMA: 7224.18 km

Apoapsis: 986.72 km

Periapsis: 705.369 km

RAAN: 315.803 deg

Eccentricy: 0.0194729

Argument of periapsis: 129.9385 deg

Mean anomaly: 348.2974 deg

Mean motion: 14.1390413 rev/day

Mean motion (dot): 0.00000862 rev/day2

B* drag term: 0.00039736 1/REarth

Two-line elements (TLE)

Creation date: July 5, 2025, 5:45 p.m.

Reference frame: TEME

Reference center: EARTH

Epoch: July 5, 2025, 5:27 a.m. UTC

TLE line 0: 0 FENGYUN 1C DEB

TLE line 1: 1 33726U 99025DHP 25186.22737432 .00000862 00000-0 39736-3 0 9995

TLE line 2: 2 33726 98.6206 315.8030 0194729 129.9385 348.2974 14.13904130896638

Live tracking on map

Real-time ground track for satellite FENGYUN 1C DEB.

In-orbit conjunctions

A list of the most updated potential collisions computed for object FENGYUN 1C DEB.

Target Orbit TCA Probability of collision Miss distance Type
CZ-6A DEB LEO 2025-01-21 14:50:05 0.0001861375 628.0 (m) DEBRIS
CZ-6A DEB SSO 2024-11-24 04:46:09 0.0001018134 303.0 (m) DEBRIS

Associated space launch

Chinese polar orbiting meteorological satellite

FENGYUN 1C DEB was lifted into orbit during the mission ‘Long March 4B | Feng Yun 1C’, on board a Long March 4B space rocket.

The launch took place on May 10, 1999, 1:33 a.m. from Launch Complex 7.

For more information about the launch, click the button.

Launch to space Long March 4B | Feng Yun 1C
Long March 4B | Feng Yun 1C

Agency: N/A

Status: Launch Successful

Launch date: May 10, 1999, 1:33 a.m. UTC

Rocket: Long March 4B

Launch pad: Launch Complex 7

Location: Taiyuan Satellite Launch Center, People's Republic of China

...

Latest news about this satellite

There are no fresh news available about this satellite. Check back as we update our databases every day.


Newsletter sign-up

Weekly statistics, charts and insights to help you stay on top of the space industry.